Regional Weather Roundup
Issued by NWS

Home | Current Version | Previous Version | Graphics & Text | Print | Product List | Glossary On
Versions: 1 2 3 4 5 6 7 8 9 10 11 12 13 14 15 16 17 18 19 20 21 22 23 24 25 26 27 28 29 30 31 32 33 34 35 36 37 38 39 40 41 42 43 44 45 46 47 48 49 50
000
ASUS43 KLMK 191102
RWRKY
KENTUCKY REGIONAL WEATHER ROUNDUP
NATIONAL WEATHER SERVICE LOUISVILLE KY
700 AM EDT SAT APR 19 2014

NOTE "FAIR" INDICATES FEW OR NO CLOUDS BELOW 12,000 FEET
WITH NO SIGNIFICANT WEATHER AND/OR OBSTRUCTIONS TO VISIBILITY.

KYZ001>023-026-027-061>063-070>075-191200-
WESTERN AND SOUTH CENTRAL KENTUCKY

CITY           SKY/WX    TMP DP  RH WIND       PRES   REMARKS
PADUCAH        CLEAR     46  42  86 CALM      30.22R
HENDERSON      CLEAR     52  41  66 NE6       30.24R
OWENSBORO      CLEAR     52  42  68 NE6       30.24R
HOPKINSVILLE   PTCLDY    48  45  87 N3        30.21R
BOWLING GREEN  CLEAR     45  43  93 CALM      30.21S
GLASGOW        NOT AVBL
$$

KYZ024-025-028>034-038-045-046-053-191200-
NORTH CENTRAL KENTUCKY

CITY           SKY/WX    TMP DP  RH WIND       PRES   REMARKS
LOUISVILLE/SDF PTCLDY    50  40  68 N6        30.25R
LOUISVILLE/LOU CLEAR     51  39  63 NW5       30.25R
FORT KNOX      CLEAR     50  39  67 N7        30.23R
$$

KYZ035>037-039>044-047>052-055>060-089>105-191200-
NORTHEAST KENTUCKY

CITY           SKY/WX    TMP DP  RH WIND       PRES   REMARKS
LEXINGTON      PTCLDY    47  38  71 NE8       30.23R
COVINGTON      PTCLDY    47  37  68 N6        30.26R
FRANKFORT      PTCLDY    48  38  68 N6        30.22S
$$

KYZ054-064>069-076>088-106>120-191200-
SOUTHEAST KENTUCKY

CITY           SKY/WX    TMP DP  RH WIND       PRES   REMARKS
JACKSON        CLEAR     54  34  46 VRB5      30.20R
LONDON         MOCLDY    53  36  52 N7        30.18S
SOMERSET       NOT AVBL
MIDDLESBORO    NOT AVBL
MONTICELLO     MOSUNNY   40  39  96 CALM      30.20F
$$




USA.gov is the U.S. government's official web portal to all federal, state and local government web resources and services.